Location: Kra?nica
(53.4833°N, 14.6167°E)
Time: 20:15:54
(UTC+00:00)

Cosmos 841 Rocket - Pass Details

Date: 23 May 2024
Orbit: 744 x 770 km, 74.0° (Epoch: 20 June)

Event Time Altitude Azimuth Distance (km) Brightness Sun altitude
Rises 00:23:47 0° 332° (NNW) 3,231 7.4 -13.6°
Reaches altitude 10° 00:26:09 10° 331° (NNW) 2,306 6.5 -13.5°
Maximum altitude 00:31:22 72° 248° (WSW) 806 3.5 -13.2°
Enters shadow 00:36:27 11° 165° (SSE) 2,256 5.5 -12.9°
